Flag for Israel Weather past 2 weeks in Rehovot, Israel

Now
79 °F

Scattered clouds.


Feels Like: 81 °F
Forecast: 75 / 92 °F
Wind: 2 mph from North

Location: Ben Gurion International Airport

Current Time: Aug 22, 2014 at 8:06:37 AM

Latest Report: Aug 22, 2014 at 7:20 AM


Visibility: N/A

Pressure: 29.83 "Hg

Humidity: 70%

Dew point: 68 °F

Location of RehovotLocation

Historic Weather in Rehovot — Graph

°F

Rehovot temperature yesterday

Maximum temperature yesterday: 91 °F (at 11:20 AM)
Minimum temperature yesterday: 75 °F (at 3:20 AM)
Average temperature yesterday: 83 °F

Past Weeks' High & Low Weather Summary

 TemperatureHumidityPressure
High102 °F (Aug 12, 7:20 PM)89% (Aug 14, 5:50 AM)29.95 "Hg (Aug 14, 5:50 AM)
Low73 °F (Aug 7, 6:20 AM)37% (Aug 12, 7:20 PM)29.62 "Hg (Aug 17, 1:20 PM)
Average83 °F67%29.79 "Hg
* Reported Aug 7 6:20 AM — Aug 22 6:50 AM, Rehovot, Weather by CustomWeather, © 2014

Note: Actual official high and low records may vary slightly from our data, if they occured in-between our weather recording intervals... More about our weather records

Advertising

Rehovot weather history for previous 24 hours

 ConditionsComfort  
Time TempWeatherWind HumidityBarometerVisibility
6:50 AM
Aug 22
77 °FPassing clouds.2 mph69%29.83 "HgN/A
6:20 AM75 °FPassing clouds.3 mph74%29.83 "HgN/A
5:20 AM77 °FPassing clouds.3 mph74%29.83 "HgN/A
4:50 AM77 °FPassing clouds.3 mph69%29.83 "HgN/A
4:20 AM77 °FPassing clouds.1 mph74%29.83 "HgN/A
3:50 AM77 °FPassing clouds.1 mph74%29.83 "HgN/A
3:20 AM79 °FPassing clouds.3 mph70%29.83 "HgN/A
2:50 AM79 °FPassing clouds.5 mph70%29.83 "HgN/A
2:20 AM79 °FPassing clouds.3 mph70%29.83 "HgN/A
1:50 AM79 °FPassing clouds.3 mph70%29.83 "HgN/A
1:20 AM79 °FPassing clouds.5 mph70%29.83 "HgN/A
12:50 AM79 °FPassing clouds.3 mph74%29.86 "HgN/A
12:20 AM81 °FPassing clouds.1 mph66%29.86 "HgN/A
11:50 PM
Aug 21
81 °FPassing clouds.2 mph70%29.86 "HgN/A
11:20 PM81 °FPassing clouds.3 mph70%29.86 "HgN/A
10:50 PM81 °FPassing clouds.3 mph70%29.86 "HgN/A
10:20 PM81 °FPassing clouds.3 mph70%29.86 "HgN/A
9:50 PM81 °FPassing clouds.5 mph70%29.86 "HgN/A
9:20 PM81 °FPassing clouds.6 mph70%29.86 "HgN/A
8:50 PM81 °FPassing clouds.6 mph70%29.86 "HgN/A
8:20 PM82 °FPassing clouds.8 mph66%29.86 "HgN/A
7:50 PM82 °FPassing clouds.13 mph66%29.83 "HgN/A
7:20 PM82 °FSunny.13 mph66%29.83 "Hg10 mi
6:50 PM84 °FSunny.14 mph62%29.83 "Hg10 mi
6:20 PM86 °FSunny.14 mph55%29.83 "Hg10 mi
5:50 PM88 °FSunny.13 mph55%29.83 "Hg10 mi
5:20 PM88 °FSunny.16 mph55%29.83 "Hg10 mi
4:50 PM88 °FSunny.15 mph52%29.83 "Hg10 mi
4:20 PM88 °FSunny.15 mph55%29.83 "Hg10 mi
3:50 PM90 °FSunny.15 mph52%29.86 "Hg10 mi
3:20 PM90 °FSunny.15 mph52%29.86 "Hg10 mi
2:50 PM90 °FSunny.14 mph49%29.86 "Hg10 mi
2:20 PM90 °FPassing clouds.13 mph49%29.86 "HgN/A
1:50 PM90 °FPassing clouds.14 mph49%29.86 "HgN/A
1:20 PM90 °FSunny.14 mph49%29.89 "Hg10 mi
12:50 PM90 °FPassing clouds.10 mph49%29.89 "HgN/A
12:20 PM90 °FSunny.13 mph49%29.89 "Hg10 mi
11:50 AM88 °FPassing clouds.9 mph52%29.89 "HgN/A
11:20 AM91 °FSunny.3 mph46%29.92 "Hg10 mi
10:50 AM88 °FSunny.6 mph49%29.92 "Hg10 mi
10:20 AM86 °FPassing clouds.3 mph52%29.92 "HgN/A
9:50 AM86 °FPassing clouds.3 mph52%29.92 "HgN/A
9:20 AM84 °FPassing clouds.2 mph58%29.92 "HgN/A
8:50 AM84 °FPassing clouds.3 mph58%29.92 "HgN/A
8:20 AM82 °FPassing clouds.5 mph58%29.92 "HgN/A
Weather by CustomWeather, © 2014

See weather overviewHow to use our weather pages